Погода в Суворовском

Россия / Республика Крым     45°15′09″N   33°22′25″E
темп.,
°C
ветер,
м/с
пор.,
м/с
влажн.,
%
обл.,
%
осадки,
мм/ч
давл.,
гПа
погр.,
м
20 апреля, вт
вт2000:00+10в5888100 0.2 1010262
03:00+10в1296100 7.4 1008137
06:00+10ссв1297100 7.6 1005148
09:00+10ю71094100 9.3 1003534
12:00+11ююз10148612 0.1 1004897
15:00+11зюз13168891 0.2 1004886
18:00+9зсз81290100 0.4 1008736
21:00+9зюз6990100 0.4 1011336
21 апреля, ср
ср2100:00+9зюз6109086 0.0 1013311
03:00+9зюз5991100 0.3 1014214
06:00+9зюз5889100 0.3 1015173
09:00+12зюз677745 0.3 1016430
12:00+13юз667451 0.3 1017722
15:00+12юз67765 0.3 1018717
18:00+11ююз67802 0.0 1018459
21:00+9ююз47911 0.0 1020177
22 апреля, чт
чт2200:00+9ююз46905 0.0 1020124
03:00+9ююз46905 0.0 1020112
06:00+9ююз46905 0.0 1021127
09:00+12ююз45735 0.0 1022376
12:00+13ююз56675 0.0 1022529
15:00+14юз56665 0.0 1022520
18:00+12юз56705 0.0 1022330
21:00+10ююз45825 0.0 102381
23 апреля, пт
пт2300:00+10ю46843 0.0 1022106
03:00+9ю46881 0.0 1022100
06:00+9ю4790100 0.0 1022131
09:00+12ю5773100 0.0 1021366
12:00+14ю6967100 0.0 1021508
15:00+14ююз81165100 0.0 1019458
18:00+12ююз8137199 0.0 1018409
21:00+11ююз7137496 0.0 1018330
24 апреля, сб
сб2400:00+10ююз81385100 0.0 1018372
03:00+10зюз579275 0.0 1018337
06:00+8ссз58926 0.0 1019277
09:00+11ссз45733 0.0 1020686
12:00+13с445273 0.0 1021959
15:00+15сз4444100 0.0 10201217
18:00+12сз6652100 0.0 1021502
21:00+9ссз466595 0.0 1022145